Location: Newark
(34.0111°N, 88.4892°W)
Time: 21:35:11
(UTC+00:00)

LightSail 2 - Pass Details

Date: 07 March 2020
Orbit: 692 x 726 km, 24.0° (Epoch: 28 March)

Event Time Altitude Azimuth Distance (km) Brightness Sun altitude
Rises 02:04:48 0° 240° (WSW) 3,052 9.1 -27.5°
Reaches altitude 10° 02:07:35 10° 227° (SW) 2,132 8.0 -28.1°
Enters shadow 02:09:44 19° 205° (SSW) 1,593 7.0 -28.5°
